This demonstration page uses our WeatherBlox Daily Observations layout. Learn more.

Left ArrowRight Arrow

41.86663, -103.66717

Hourly Observations for December 5, 2021

Temp ( °F °C ) Dew Point ( °F °C ) Humidity (%) Winds ( mph kmh ) Pressure ( in mb ) Visibility ( mi km ) Precip ( " mm )
12:53 am 00:53 Clear 58 14.4 15 -9.4 18 18 W 13 20 29.63 1003 10 16 N/A
1:53 am 01:53 Clear 57 13.9 15 -9.4 19 19 W 13 20 29.60 1002 10 16 N/A
2:53 am 02:53 Clear 57 13.9 15 -9.4 19 19 WNW 17 28 29.60 1002 10 16 N/A
3:53 am 03:53 Clear 57 13.9 16 -8.9 20 20 W 25 41 29.60 1002 10 16 N/A
4:53 am 04:53 Clear 56 13.3 16 -8.9 21 21 W 21 33 29.63 1003 10 16 N/A
5:53 am 05:53 Clear 50 10 18 -7.8 28 28 NW 16 26 29.67 1005 10 16 N/A
6:53 am 06:53 Clear 40 4.4 23 -5 51 51 NNE 12 19 29.72 1007 10 16 N/A
7:53 am 07:53 Sunny 36 2.2 22 -5.6 57 57 NE 6 9 29.75 1007 10 16 N/A
8:53 am 08:53 Sunny 41 5 24 -4.4 51 51 NE 17 28 29.75 1008 10 16 N/A
9:53 am 09:53 Sunny 43 6.1 25 -3.9 49 49 NNE 13 20 29.80 1009 10 16 N/A
10:53 am 10:53 Mostly Cloudy 42 5.6 21 -6.1 43 43 NNW 26 43 29.87 1012 10 16 N/A
11:53 am 11:53 Cloudy 36 2.2 16 -8.9 44 44 NNW 31 50 29.93 1014 10 16 N/A
12:53 pm 12:53 Cloudy 33 0.6 16 -8.9 49 49 NNW 31 50 29.98 1015 10 16 0.00 0.00
1:53 pm 13:53 Windy with Snow Likely 31 -0.6 21 -6.1 67 67 NW 26 43 30.04 1017 3 4 0.00 0.00
2:01 pm 14:01 Windy with Snow Likely 31 -0.6 22 -5.6 69 69 NW 24 39 30.16 1021 3 4 0.00 0.00
2:08 pm 14:08 Windy with Snow Likely 30 -1 19 -7 64 64 NNW 29 46 30.17 1022 6 10 N/A
2:48 pm 14:48 Windy with Snow Likely 28 -2 19 -7 69 69 NW 23 37 30.22 1023 4 6 0.00 0.00
2:53 pm 14:53 Windy with Snow Likely 29 -1.7 18 -7.8 63 63 NW 25 41 30.09 1019 6 10 0.00 0.00
3:53 pm 15:53 Windy with Snow Likely 27 -2.8 18 -7.8 69 69 NW 20 31 30.14 1021 4 6 0.00 0.00
3:55 pm 15:55 Windy with Snow Likely 27 -2.8 19 -7.2 72 72 NW 21 33 30.29 1026 3 4 0.00 0.00
4:03 pm 16:03 Cloudy with Light Snow 26 -3.3 19 -7.2 75 75 NW 17 28 30.30 1026 2 2 0.00 0.00
4:11 pm 16:11 Cloudy with Light Snow 26 -3.3 19 -7.2 75 75 NW 15 24 30.30 1026 3 4 0.00 0.00
4:19 pm 16:19 Cloudy with Light Snow 26 -3.3 18 -7.8 71 71 WNW 14 22 30.29 1026 6 10 0.00 0.00
4:53 pm 16:53 Cloudy 26 -3.3 18 -7.8 71 71 WNW 14 22 30.16 1021 10 16 0.00 0.00
5:53 pm 17:53 Cloudy 27 -2.8 12 -11.1 53 53 NW 20 31 30.20 1023 10 16 N/A
6:53 pm 18:53 Cloudy 27 -2.8 11 -11.7 51 51 NW 22 35 30.25 1025 10 16 N/A
7:53 pm 19:53 Cloudy 26 -3.3 11 -11.7 53 53 NW 25 41 30.29 1026 10 16 N/A
8:53 pm 20:53 Cloudy 25 -3.9 10 -12.2 53 53 NW 25 41 30.31 1027 10 16 N/A
9:53 pm 21:53 Cloudy 24 -4.4 9 -12.8 52 52 NW 17 28 30.34 1027 10 16 N/A
10:53 pm 22:53 Cloudy 23 -5 9 -12.8 55 55 WNW 15 24 30.34 1028 10 16 N/A
11:53 pm 23:53 Cloudy 23 -5 9 -12.8 55 55 NW 15 24 30.38 1029 10 16 N/A

Powered by AerisWeather